Weather History for KMTP - October, 2013

Change the Weather History Date:

Saturday, October 5, 2013

  Actual Average (KHTO) Record (KHTO)
Temperature  
Mean Temperature 64 °F -  
Max Temperature 69 °F 66 °F 82 °F (1967)
Min Temperature 59 °F 49 °F 33 °F (2007)
Degree Days  
Heating Degree Days 2    
Growing Degree Days 14 (Base 50)    
Moisture  
Dew Point 60 °F    
Average Humidity 88    
Maximum Humidity 97    
Minimum Humidity 76    
Precipitation  
Precipitation 0.00 in - - ()
Sea Level Pressure  
Sea Level Pressure 30.09 in    
Wind  
Wind Speed 2 mph (NNE)    
Max Wind Speed 7 mph    
Max Gust Speed -    
Averages and records for this station are not official NWS values.
T = Trace of Precipitation, MM = Missing Value Source: NWS Daily Summary

Daily Weather History Graph

Daily Weather History Graph

Search for Another Location

Airport or City:

Trip Planner

Search our weather history database for the weather conditions in past years. The results will help you decide how hot, cold, wet, or windy it might be!

Date:

Astronomy

Oct. 05, 2013 Rise Set
Actual Time 6:48 AM EDT 6:22 PM EDT
Civil Twilight 6:21 AM EDT 6:50 PM EDT
Nautical Twilight 5:49 AM EDT 7:21 PM EDT
Astronomical Twilight 5:17 AM EDT 7:53 PM EDT
Moon 7:25 AM EDT 6:38 PM EDT
Length of Visible Light 12h 28m
Length of Day
11h 33m
New Moon, 0% of the Moon is Illuminated
Oct 5
New Moon
Oct 11
First Quarter
Oct 18
Full
Oct 26
Last Quarter
Nov 3
New

Hourly Weather History & Observations

Time (EDT) Temp. Dew Point Humidity Pressure Visibility Wind Dir Wind Speed Gust Speed Precip Events Conditions
12:54 AM 63.0 °F 60.1 °F 90% 30.06 in - Calm Calm - N/A   Unknown
1:54 AM 62.1 °F 60.1 °F 93% 30.06 in - Calm Calm - N/A   Unknown
2:54 AM 63.0 °F 60.1 °F 90% 30.06 in - Calm Calm - N/A   Unknown
3:54 AM 63.0 °F 61.0 °F 93% 30.06 in - NE 5.8 mph - N/A   Unknown
4:54 AM 63.0 °F 60.1 °F 90% 30.06 in - Calm Calm - N/A   Unknown
5:54 AM 63.0 °F 60.1 °F 90% 30.07 in - NE 4.6 mph - N/A   Unknown
6:54 AM 63.0 °F 60.1 °F 90% 30.08 in - NNE 3.5 mph - N/A   Unknown
7:54 AM 62.1 °F 60.1 °F 93% 30.09 in - NE 4.6 mph - N/A   Unknown
8:54 AM 63.0 °F 60.1 °F 90% 30.10 in - NNE 5.8 mph - N/A   Unknown
9:54 AM 63.0 °F 59.0 °F 87% 30.11 in - NNE 5.8 mph - N/A   Unknown
10:54 AM 64.9 °F 60.1 °F 84% 30.11 in - Variable 4.6 mph - N/A   Unknown
11:54 AM 64.9 °F 59.0 °F 81% 30.11 in - NNE 6.9 mph - N/A   Unknown
12:54 PM 66.0 °F 59.0 °F 78% 30.09 in - NNE 4.6 mph - N/A   Unknown
1:54 PM 66.0 °F 60.1 °F 81% 30.08 in - Variable 3.5 mph - N/A   Unknown
2:54 PM 66.9 °F 59.0 °F 76% 30.07 in - Variable 3.5 mph - N/A   Unknown
3:54 PM 68.0 °F 60.1 °F 76% 30.08 in - Calm Calm - N/A   Unknown
4:54 PM 66.9 °F 60.1 °F 79% 30.08 in - Variable 3.5 mph - N/A   Unknown
5:54 PM 64.9 °F 59.0 °F 81% 30.09 in - Calm Calm - N/A   Unknown
6:54 PM 63.0 °F 60.1 °F 90% 30.09 in - Calm Calm - N/A   Unknown
7:54 PM 61.0 °F 57.9 °F 90% 30.10 in - Calm Calm - N/A   Unknown
8:54 PM 61.0 °F 59.0 °F 93% 30.11 in - Calm Calm - N/A   Unknown
9:54 PM 60.1 °F 59.0 °F 96% 30.12 in - Calm Calm - N/A   Unknown
10:54 PM 59.0 °F 57.0 °F 93% 30.12 in - Calm Calm - N/A   Unknown
11:54 PM 61.0 °F 60.1 °F 97% 30.13 in - Calm Calm - N/A   Unknown